Notices

What's New in latest Release from April 7th, 2021:

- Updated Glossary, including Speed of Maximum Gust, and Total Hourly Precipitation

- Updated national and regional climate services offices contacts and prices information

- Addition of station inventory lists for 1981-2010, 1971-2000, and 1961-1990 Normals.

If you haven't already, please take our survey and provide feedback about our website: https://eccc.sondage-survey.ca/f/LanguageSelection.aspx?s=442ca660-fcf1-47c0-95a9-59707d6fd709

Hourly Data Report for April 30, 2017

CLYDE RIVER A
NUNAVUT

70°29'09.000" N
68°31'01.000" W
26.50 m
2400804
71090
YCY

Download Data

Hourly Data (April 2017)
Hourly Data Report for April 30, 2017
TIME
LST
Temp Definition
°C
Dew Point Definition
°C
Rel Hum Definition
%
Precip. Amount Definition
mm

Wind Dir Definition
10's deg

Wind Spd Definition
km/h
Visibility Definition
km
Stn Press Definition
kPa
Hmdx Definition


Wind Chill Definition


Weather Definition


00:00 -15.1 -16.8 87 0.0 32 39 1.2 100.70   -27 Snow
01:00 -15.5 -17.3 86 0.0 32 41 2.0 100.71   -28 Snow,Blowing Snow
02:00 -15.8 -17.8 85 0.0 32 37 3.2 100.74   -28 Snow
03:00 -15.8 -17.9 84 0.0 32 37 4.8 100.78   -28 Snow
04:00 -15.6 -17.7 84 0.0 31 34 4.0 100.82   -27 Snow
05:00 -15.2 -17.5 83 0.0 31 34 4.8 100.82   -27 Snow
06:00 -14.6 -16.9 83 0.0 31 34 8.1 100.87   -26 Snow
07:00 -14.1 -16.5 82 0.0 31 30 16.1 100.87   -25 Snow
08:00 -13.6 -16.1 82 0.0 31 32 16.1 100.88   -25 Snow
09:00 -12.9 -15.3 82 0.0 32 35 4.8 100.87   -24 Snow
10:00 -12.5 -15.0 82 0.0 31 37 4.0 100.85   -24 Snow
11:00 -12.2 -14.5 83 0.0 32 35 2.0 100.85   -23 Snow
12:00 -11.8 -14.3 82 0.0 32 37 6.4 100.84   -23 Snow
13:00 -11.6 -14.1 82 0.0 32 37 8.1 100.84   -23 Snow
14:00 -11.6 -13.8 84 0.0 32 35 4.8 100.84   -22 Snow
15:00 -11.5 -13.9 82 0.0 32 35 4.8 100.87   -22 Snow
16:00 -11.9 -14.4 82 0.0 33 34 9.7 100.87   -23 Snow
17:00 -12.1 -14.1 85 0.0 33 32 11.3 100.86   -23 Snow
18:00 -12.5 -14.4 86 0.0 32 35 9.7 100.84   -23 Snow
19:00 -12.7 -14.6 86 0.0 32 32 8.1 100.81   -23 Snow
20:00 -12.9 -14.6 87 0.0 32 30 6.4 100.83   -23 Snow
21:00 -13.3 -15.0 87 0.0 32 35 8.1 100.79   -25 Snow
22:00 -13.0 -14.6 88 0.0 32 30 9.7 100.76   -23 Snow
23:00 -12.8 -14.4 88 0.0 32 35 3.2 100.71   -24 Snow

Notes on Data Quality.

Legend

  • E = Estimated
  • M = Missing
  • NA = Not Available*
  • [empty] = Indicates an unobserved value
Date modified: